Flag for Luxembourg Weather past 2 weeks in Esch-sur-Alzette, Luxembourg

Now
55 °F

Rain showers. Broken clouds.


Feels Like: 53 °F
Forecast: 44 / 63 °F
Wind: 9 mph from West

Location: Luxembourg Airport

Current Time: Aug 23, 2014 at 3:47:16 PM

Latest Report: Aug 23, 2014 at 2:50 PM


Visibility: 5 mi

Pressure: 29.98 "Hg

Humidity: 88%

Dew point: 52 °F

Location of Esch-sur-AlzetteLocation

Historic Weather in Esch-sur-Alzette — Graph

°F

Esch-sur-Alzette temperature yesterday

Maximum temperature yesterday: 64 °F (at 3:20 PM)
Minimum temperature yesterday: 48 °F (at 1:20 AM)
Average temperature yesterday: 56 °F

Past Weeks' High & Low Weather Summary

 TemperatureHumidityPressure
High73 °F (Aug 8, 3:50 PM)100% (Aug 9, 12:50 AM)30.15 "Hg (Aug 9, 12:50 AM)
Low45 °F (Aug 20, 3:20 AM)39% (Aug 21, 5:50 PM)29.68 "Hg (Aug 10, 6:50 PM)
Average58 °F79%29.93 "Hg
* Reported Aug 8 2:20 PM — Aug 23 2:50 PM, Esch-sur-Alzette, Weather by CustomWeather, © 2014

Note: Actual official high and low records may vary slightly from our data, if they occured in-between our weather recording intervals... More about our weather records

Advertising

Esch-sur-Alzette weather history for previous 24 hours

 ConditionsComfort  
Time TempWeatherWind HumidityBarometerVisibility
2:50 PM
Aug 23
55 °FRain showers. Broken clouds.9 mph88%29.98 "Hg5 mi
2:20 PM57 °FSprinkles. Broken clouds.8 mph82%29.98 "HgN/A
1:50 PM55 °FPartly sunny.6 mph82%29.98 "HgN/A
1:20 PM55 °FSprinkles. Partly sunny.8 mph77%29.98 "HgN/A
12:50 PM57 °FPartly sunny.8 mph72%29.98 "HgN/A
12:20 PM57 °FCool.8 mph72%29.98 "HgN/A
11:50 AM55 °FSprinkles. Broken clouds.10 mph82%29.98 "HgN/A
11:20 AM55 °FBroken clouds.9 mph77%29.98 "HgN/A
10:50 AM55 °FBroken clouds.8 mph82%29.98 "HgN/A
10:20 AM55 °FBroken clouds.7 mph82%29.98 "HgN/A
9:50 AM55 °FPartly sunny.8 mph82%29.98 "HgN/A
9:20 AM55 °FBroken clouds.7 mph82%29.98 "HgN/A
8:50 AM54 °FPartly sunny.8 mph94%29.95 "HgN/A
8:20 AM54 °FCool.6 mph94%29.95 "HgN/A
7:50 AM52 °FPartly sunny.6 mph100%29.95 "HgN/A
7:20 AM52 °FPassing clouds.5 mph100%29.95 "HgN/A
6:50 AM54 °FPassing clouds.5 mph94%29.95 "HgN/A
6:20 AM54 °FPassing clouds.5 mph94%29.95 "HgN/A
5:50 AM54 °FPassing clouds.5 mph94%29.95 "HgN/A
5:20 AM54 °FPartly cloudy.6 mph94%29.95 "HgN/A
4:50 AM54 °FPartly cloudy.7 mph94%29.95 "HgN/A
4:20 AM54 °FCool.7 mph94%29.95 "HgN/A
3:50 AM54 °FCool.6 mph94%29.95 "HgN/A
3:20 AM54 °FCool.5 mph94%29.95 "HgN/A
2:50 AM54 °FCool.6 mph94%29.95 "HgN/A
2:20 AM54 °FCool.8 mph94%29.95 "HgN/A
1:50 AM55 °FLight rain. Passing clouds.7 mph82%29.95 "HgN/A
1:20 AM55 °FClear.10 mph82%29.95 "Hg10 mi
12:50 AM55 °FClear.9 mph82%29.95 "Hg10 mi
12:20 AM55 °FClear.8 mph77%29.95 "Hg10 mi
11:50 PM
Aug 22
55 °FClear.7 mph77%29.95 "Hg10 mi
11:20 PM57 °FClear.6 mph67%29.95 "Hg10 mi
10:50 PM57 °FPassing clouds.6 mph67%29.95 "HgN/A
10:20 PM57 °FClear.5 mph67%29.95 "Hg10 mi
9:50 PM59 °FPassing clouds.6 mph59%29.95 "HgN/A
9:20 PM59 °FPassing clouds.7 mph59%29.95 "HgN/A
8:50 PM61 °FPassing clouds.7 mph55%29.92 "HgN/A
8:20 PM61 °FPassing clouds.8 mph59%29.92 "HgN/A
7:50 PM63 °FPassing clouds.9 mph56%29.92 "HgN/A
7:20 PM63 °FPassing clouds.13 mph56%29.92 "HgN/A
6:50 PM64 °FScattered clouds.14 mph52%29.92 "HgN/A
6:20 PM64 °FScattered clouds.12 mph52%29.92 "HgN/A
5:50 PM64 °FScattered clouds.15 mph49%29.92 "HgN/A
5:20 PM64 °FBroken clouds.8 mph52%29.92 "HgN/A
4:50 PM64 °FBroken clouds.12 mph52%29.92 "HgN/A
4:20 PM63 °FPartly sunny.8 mph56%29.95 "HgN/A
3:50 PM63 °FPartly sunny.12 mph52%29.95 "HgN/A
3:20 PM64 °FScattered clouds.14 mph49%29.95 "HgN/A
Weather by CustomWeather, © 2014

See weather overviewHow to use our weather pages